{"data":{"norad_id":58296,"intl_designator":"2023-174AS","name":"PELICAN-1","alt_names":[],"object_type":"PAYLOAD","status":"ACTIVE","operator":null,"country":"US","launch_date":"2023-11-11","launch_site_code":"AFWTR","launch_vehicle":null,"mission":null,"orbit_class":"UNKNOWN","rcs_meters":null,"size_class":null,"mass_kg":null,"dimensions":null,"purposes":["earth_obs"],"wikipedia_slug":null,"has_3d_model":false,"image_url":null,"decayed_at":null,"tle_current":{"epoch":"2026-05-24T20:06:25.355808Z","epoch_age_seconds":85533,"freshness":"FRESH","line1":"1 58296U 23174AS  26144.83779347  .00023400  00000+0  17358-3 0  9997","line2":"2 58296  97.4014 243.7390 0001374  52.2445 307.8943 15.72891035142497","mean_motion":15.72891035,"eccentricity":0.0001374,"inclination_deg":97.4014,"raan_deg":243.739,"arg_perigee_deg":52.2445,"mean_anomaly_deg":307.8943,"bstar":0.00017358,"rev_number":14249,"period_min":91.551160757935,"perigee_km":349.71465701212,"apogee_km":351.56372470937,"semimajor_km":6728.7761908607,"source":"CELESTRAK","updated_at":"2026-05-25T13:38:13.299653Z"}}}